TimeBST,TemperatureF,Dew PointF,Humidity,Sea Level PressureIn,VisibilityMPH,Wind Direction,Wind SpeedMPH,Gust SpeedMPH,PrecipitationIn,Events,Conditions,WindDirDegrees,DateUTC
12:20 AM,53.6,53.6,100,30.04,-9999.0,NE,6.9,-,N/A,,Clear,50,2013-06-17 23:20:00
12:50 AM,53.6,53.6,100,30.04,-9999.0,NE,4.6,-,N/A,,Clear,50,2013-06-17 23:50:00
1:20 AM,53.6,53.6,100,30.04,-9999.0,ENE,3.5,-,N/A,,Clear,60,2013-06-18 00:20:00
1:50 AM,53.6,53.6,100,30.04,-9999.0,NNE,4.6,-,N/A,,Clear,20,2013-06-18 00:50:00
2:20 AM,53.6,53.6,100,30.04,-9999.0,ENE,3.5,-,N/A,,Clear,60,2013-06-18 01:20:00
2:50 AM,53.6,53.6,100,30.04,-9999.0,ENE,4.6,-,N/A,,Clear,70,2013-06-18 01:50:00
3:20 AM,53.6,51.8,94,30.01,-9999.0,NE,4.6,-,N/A,,Clear,50,2013-06-18 02:20:00
3:50 AM,53.6,51.8,94,30.01,5.0,ENE,5.8,-,N/A,,Unknown,70,2013-06-18 02:50:00
4:20 AM,53.6,51.8,94,30.01,-9999.0,ENE,5.8,-,N/A,,Clear,60,2013-06-18 03:20:00
4:50 AM,53.6,51.8,94,30.01,-9999.0,NE,5.8,-,N/A,,Clear,50,2013-06-18 03:50:00
5:20 AM,53.6,51.8,94,30.01,-9999.0,ENE,5.8,-,N/A,,Clear,60,2013-06-18 04:20:00
5:50 AM,53.6,51.8,94,30.01,-9999.0,ENE,4.6,-,N/A,,Clear,60,2013-06-18 04:50:00
6:20 AM,53.6,51.8,94,29.98,5.6,NNE,3.5,-,N/A,,Unknown,30,2013-06-18 05:20:00
6:50 AM,53.6,53.6,100,29.98,5.0,ENE,4.6,-,N/A,,Scattered Clouds,70,2013-06-18 05:50:00
7:20 AM,55.4,53.6,94,30.01,5.0,NNE,3.5,-,N/A,Rain,Light Rain,30,2013-06-18 06:20:00
7:50 AM,55.4,53.6,94,30.01,5.6,Variable,2.3,-,N/A,,Mostly Cloudy,0,2013-06-18 06:50:00
8:20 AM,55.4,53.6,94,30.01,5.0,East,4.6,-,N/A,,Scattered Clouds,90,2013-06-18 07:20:00
8:50 AM,57.2,53.6,88,30.01,5.6,East,3.5,-,N/A,,Scattered Clouds,80,2013-06-18 07:50:00
9:20 AM,57.2,53.6,88,30.01,6.2,NE,3.5,-,N/A,,Scattered Clouds,50,2013-06-18 08:20:00
9:50 AM,57.2,53.6,88,30.01,-9999.0,Variable,3.5,-,N/A,,Clear,0,2013-06-18 08:50:00
10:20 AM,59.0,53.6,82,29.98,-9999.0,Variable,3.5,-,N/A,,Clear,0,2013-06-18 09:20:00
10:50 AM,59.0,55.4,88,29.98,-9999.0,NE,5.8,-,N/A,,Clear,40,2013-06-18 09:50:00
11:20 AM,60.8,55.4,82,29.98,-9999.0,ENE,6.9,-,N/A,,Clear,60,2013-06-18 10:20:00
11:50 AM,60.8,53.6,77,29.98,-9999.0,NNE,5.8,-,N/A,,Clear,30,2013-06-18 10:50:00
12:20 PM,59.0,53.6,82,29.98,-9999.0,NE,6.9,-,N/A,,Clear,40,2013-06-18 11:20:00
12:50 PM,59.0,53.6,82,29.95,-9999.0,NNE,5.8,-,N/A,,Clear,30,2013-06-18 11:50:00
1:20 PM,60.8,53.6,77,29.95,-9999.0,NNE,4.6,-,N/A,,Clear,30,2013-06-18 12:20:00
1:50 PM,60.8,53.6,77,29.95,-9999.0,NE,5.8,-,N/A,,Clear,50,2013-06-18 12:50:00
2:20 PM,62.6,53.6,72,29.95,6.2,Variable,3.5,-,N/A,,Partly Cloudy,0,2013-06-18 13:20:00
2:50 PM,64.4,53.6,68,29.95,6.2,ENE,6.9,-,N/A,,Partly Cloudy,60,2013-06-18 13:50:00
3:20 PM,62.6,53.6,72,29.95,6.2,NE,8.1,-,N/A,,Partly Cloudy,50,2013-06-18 14:20:00
3:50 PM,64.4,53.6,68,29.92,6.2,NE,8.1,-,N/A,,Partly Cloudy,50,2013-06-18 14:50:00
4:20 PM,64.4,53.6,68,29.92,6.2,NE,8.1,-,N/A,,Partly Cloudy,40,2013-06-18 15:20:00
4:50 PM,64.4,55.4,73,29.92,6.2,NE,9.2,-,N/A,,Partly Cloudy,40,2013-06-18 15:50:00
5:20 PM,62.6,55.4,77,29.92,6.2,NNE,8.1,-,N/A,,Partly Cloudy,30,2013-06-18 16:20:00
5:50 PM,59.0,55.4,88,29.92,6.2,NE,8.1,-,N/A,,Partly Cloudy,40,2013-06-18 16:50:00
6:20 PM,59.0,55.4,88,29.92,6.2,NE,6.9,-,N/A,,Partly Cloudy,50,2013-06-18 17:20:00
6:50 PM,64.4,55.4,73,29.92,6.2,Variable,3.5,-,N/A,,Partly Cloudy,0,2013-06-18 17:50:00
7:20 PM,64.4,55.4,73,29.92,6.2,Variable,2.3,-,N/A,,Partly Cloudy,0,2013-06-18 18:20:00
7:50 PM,62.6,53.6,72,29.92,6.2,West,4.6,-,N/A,,Partly Cloudy,270,2013-06-18 18:50:00
8:20 PM,62.6,51.8,68,29.92,6.2,WSW,6.9,-,N/A,,Partly Cloudy,250,2013-06-18 19:20:00
8:50 PM,64.4,50.0,59,29.95,6.2,West,6.9,-,N/A,,Partly Cloudy,280,2013-06-18 19:50:00
9:20 PM,64.4,50.0,59,29.95,6.2,West,6.9,-,N/A,,Partly Cloudy,260,2013-06-18 20:20:00
9:50 PM,62.6,50.0,63,29.95,6.2,West,6.9,-,N/A,,Scattered Clouds,260,2013-06-18 20:50:00
10:20 PM,60.8,50.0,68,29.95,-9999.0,West,5.8,-,N/A,,Clear,280,2013-06-18 21:20:00
10:50 PM,59.0,51.8,77,29.95,-9999.0,West,6.9,-,N/A,,Clear,260,2013-06-18 21:50:00
11:20 PM,55.4,50.0,82,29.95,-9999.0,SW,5.8,-,N/A,,Clear,230,2013-06-18 22:20:00
11:50 PM,55.4,50.0,82,29.98,-9999.0,WSW,8.1,-,N/A,,Clear,240,2013-06-18 22:50:00